Appleton, MN

3:01 PM CDT on August 23, 2017 (GMT -0500)
Appleton Municipal

Weather History for KAQP - November, 2014

Change the Weather History Date:

Wednesday, November 12, 2014

  Actual Average Record
Temperature  
Mean Temperature 20 °F -  
Max Temperature 24 °F 39 °F 64 °F (1999)
Min Temperature 15 °F 22 °F 3 °F (1996)
Degree Days  
Heating Degree Days 46    
Moisture  
Dew Point 16 °F    
Average Humidity 82    
Maximum Humidity 93    
Minimum Humidity 74    
Precipitation  
Precipitation 0.00 in - - ()
Sea Level Pressure  
Sea Level Pressure 30.36 in    
Wind  
Wind Speed 14 mph (NW)    
Max Wind Speed 22 mph    
Max Gust Speed 26 mph    
Visibility 8 miles    
Events Snow    
Averages and records for this station are not official NWS values.
T = Trace of Precipitation, MM = Missing Value Source: NWS Daily Summary

Daily Weather History Graph

Daily Weather History Graph

Search for Another Location

Airport or City:

Trip Planner

Search our weather history database for the weather conditions in past years. The results will help you decide how hot, cold, wet, or windy it might be!

Date:

Astronomy

Nov. 12, 2014 Rise Set
Actual Time 7:18 AM CST 4:57 PM CST
Civil Twilight 6:46 AM CST 5:29 PM CST
Nautical Twilight 6:11 AM CST 6:04 PM CST
Astronomical Twilight 5:36 AM CST 6:39 PM CST
Moon 10:20 PM CST (11/12) 12:03 PM CST (11/12)
Length of Visible Light 10h 42m
Length of Day
9h 39m
Waning Gibbous, 68% of the Moon is Illuminated
Nov 12
Waning Gibbous
Nov 14
Last Quarter
Nov 22
New
Nov 29
First Quarter
Dec 6
Full

Hourly Weather History & Observations

Time (CST) Temp. Windchill Dew Point Humidity Pressure Visibility Wind Dir Wind Speed Gust Speed Precip Events Conditions
12:14 AM 15.8 °F 2.7 °F 10.4 °F 79% 30.33 in 10.0 mi WNW 11.5 mph - N/A   Overcast
12:35 AM 15.8 °F 0.9 °F 10.4 °F 79% 30.33 in 10.0 mi WNW 15.0 mph - N/A   Overcast
12:54 AM 15.8 °F 3.4 °F 10.4 °F 79% 30.33 in 10.0 mi WNW 10.4 mph - N/A   Overcast
1:14 AM 15.8 °F 2.1 °F 10.4 °F 79% 30.33 in 10.0 mi WNW 12.7 mph - N/A   Overcast
1:34 AM 15.8 °F 4.2 °F 10.4 °F 79% 30.33 in 10.0 mi WNW 9.2 mph - N/A   Overcast
1:54 AM 15.8 °F 3.4 °F 10.4 °F 79% 30.33 in 10.0 mi WNW 10.4 mph - N/A   Mostly Cloudy
2:15 AM 15.8 °F 3.4 °F 12.2 °F 86% 30.34 in 10.0 mi WNW 10.4 mph - N/A   Mostly Cloudy
2:34 AM 17.6 °F 5.7 °F 12.2 °F 79% 30.34 in 10.0 mi WNW 10.4 mph - N/A   Mostly Cloudy
2:54 AM 17.6 °F 5.0 °F 12.2 °F 79% 30.34 in 10.0 mi WNW 11.5 mph - N/A   Scattered Clouds
3:14 AM 17.6 °F 6.4 °F 12.2 °F 79% 30.34 in 10.0 mi WNW 9.2 mph - N/A   Mostly Cloudy
3:34 AM 17.6 °F 5.0 °F 12.2 °F 79% 30.34 in 10.0 mi WNW 11.5 mph - N/A   Overcast
3:54 AM 17.6 °F 3.7 °F 12.2 °F 79% 30.34 in 10.0 mi WNW 13.8 mph - N/A   Mostly Cloudy
4:14 AM 17.6 °F 5.7 °F 12.2 °F 79% 30.34 in 10.0 mi WNW 10.4 mph - N/A   Scattered Clouds
4:35 AM 15.8 °F 2.7 °F 12.2 °F 86% 30.34 in 10.0 mi WNW 11.5 mph - N/A   Mostly Cloudy
4:54 AM 15.8 °F 0.9 °F 12.2 °F 86% 30.34 in 10.0 mi WNW 15.0 mph - N/A   Overcast
5:14 AM 17.6 °F 2.7 °F 12.2 °F 79% 30.35 in 10.0 mi WNW 16.1 mph - N/A   Overcast
5:34 AM 17.6 °F 4.3 °F 12.2 °F 79% 30.35 in 10.0 mi WNW 12.7 mph - N/A   Overcast
5:54 AM 17.6 °F 5.0 °F 12.2 °F 79% 30.35 in 5.0 mi West 11.5 mph - N/A Snow Light Snow
6:15 AM 17.6 °F 5.7 °F 12.2 °F 79% 30.34 in 2.0 mi West 10.4 mph - N/A Snow Light Snow
6:34 AM 17.6 °F 5.7 °F 14.0 °F 86% 30.34 in 4.0 mi West 10.4 mph - N/A Snow Light Snow
6:54 AM 17.6 °F 5.7 °F 15.8 °F 93% 30.34 in 4.0 mi WNW 10.4 mph - N/A Snow Light Snow
7:14 AM 17.6 °F 5.7 °F 14.0 °F 86% 30.34 in 10.0 mi WNW 10.4 mph - N/A Snow Light Snow
7:34 AM 17.6 °F 7.3 °F 14.0 °F 86% 30.34 in 10.0 mi WNW 8.1 mph - N/A Snow Light Snow
7:54 AM 17.6 °F 4.3 °F 15.8 °F 93% 30.34 in 10.0 mi WNW 12.7 mph - N/A Snow Light Snow
8:14 AM 19.4 °F 5.5 °F 15.8 °F 86% 30.34 in 10.0 mi WNW 15.0 mph - N/A Snow Light Snow
8:34 AM 19.4 °F 7.2 °F 15.8 °F 86% 30.34 in 10.0 mi WNW 11.5 mph - N/A Snow Light Snow
8:54 AM 19.4 °F 7.9 °F 15.8 °F 86% 30.35 in 7.0 mi WNW 10.4 mph - N/A Snow Light Snow
9:14 AM 19.4 °F 7.9 °F 15.8 °F 86% 30.35 in 10.0 mi WNW 10.4 mph - N/A   Scattered Clouds
9:34 AM 19.4 °F 7.9 °F 15.8 °F 86% 30.35 in 10.0 mi WNW 10.4 mph - N/A   Scattered Clouds
9:54 AM 21.2 °F 8.3 °F 17.6 °F 86% 30.35 in 7.0 mi WNW 13.8 mph - N/A   Mostly Cloudy
10:14 AM 21.2 °F 9.5 °F 17.6 °F 86% 30.36 in 3.0 mi WNW 11.5 mph - N/A Snow Light Snow
10:34 AM 21.2 °F 7.8 °F 17.6 °F 86% 30.36 in 10.0 mi WNW 15.0 mph - N/A   Mostly Cloudy
10:54 AM 23.0 °F 9.6 °F 17.6 °F 80% 30.35 in 3.0 mi NW 16.1 mph - N/A Snow Light Snow
11:14 AM 24.8 °F 11.9 °F 17.6 °F 74% 30.35 in 3.0 mi NW 16.1 mph 23.0 mph N/A Snow Light Snow
11:34 AM 23.0 °F 8.7 °F 17.6 °F 80% 30.35 in 2.5 mi NW 18.4 mph - N/A Snow Light Snow
11:55 AM 24.8 °F 10.3 °F 17.6 °F 74% 30.35 in 2.5 mi NW 20.7 mph - N/A Snow Light Snow
12:14 PM 24.8 °F 11.1 °F 17.6 °F 74% 30.35 in 10.0 mi NW 18.4 mph - N/A   Mostly Cloudy
12:35 PM 24.8 °F 11.1 °F 17.6 °F 74% 30.35 in 10.0 mi NW 18.4 mph 21.9 mph N/A   Mostly Cloudy
12:54 PM 24.8 °F 11.1 °F 17.6 °F 74% 30.35 in 10.0 mi NW 18.4 mph - N/A   Scattered Clouds
1:14 PM 24.8 °F 11.1 °F 17.6 °F 74% 30.35 in 10.0 mi NW 18.4 mph - N/A   Mostly Cloudy
1:35 PM 24.8 °F 11.5 °F 17.6 °F 74% 30.35 in 10.0 mi NW 17.3 mph - N/A   Overcast
1:54 PM 24.8 °F 11.5 °F 17.6 °F 74% 30.35 in 7.0 mi NW 17.3 mph - N/A   Overcast
2:14 PM 24.8 °F 11.9 °F 17.6 °F 74% 30.35 in 10.0 mi NW 16.1 mph 19.6 mph N/A   Overcast
2:35 PM 24.8 °F 10.3 °F 17.6 °F 74% 30.35 in 7.0 mi NW 20.7 mph 24.2 mph N/A   Overcast
2:54 PM 24.8 °F 11.9 °F 19.4 °F 80% 30.35 in 3.0 mi NW 16.1 mph 21.9 mph N/A Snow Light Snow
3:14 PM 24.8 °F 10.3 °F 17.6 °F 74% 30.35 in 5.0 mi NW 20.7 mph - N/A Snow Light Snow
3:35 PM 24.8 °F 11.1 °F 19.4 °F 80% 30.36 in 5.0 mi NW 18.4 mph - N/A Snow Light Snow
3:55 PM 24.8 °F 11.5 °F 19.4 °F 80% 30.37 in 7.0 mi NW 17.3 mph 24.2 mph N/A Snow Light Snow
4:15 PM 24.8 °F 11.9 °F 19.4 °F 80% 30.37 in 10.0 mi NW 16.1 mph - N/A   Overcast
4:34 PM 24.8 °F 12.4 °F 19.4 °F 80% 30.37 in 7.0 mi NW 15.0 mph - N/A Snow Light Snow
4:55 PM 24.8 °F 12.4 °F 19.4 °F 80% 30.37 in 4.0 mi NW 15.0 mph - N/A Snow Light Snow
5:14 PM 24.8 °F 12.4 °F 19.4 °F 80% 30.37 in 10.0 mi NW 15.0 mph - N/A Snow Light Snow
5:34 PM 24.8 °F 11.5 °F 19.4 °F 80% 30.38 in 10.0 mi NW 17.3 mph - N/A   Overcast
5:54 PM 24.8 °F 11.1 °F 19.4 °F 80% 30.38 in 10.0 mi NW 18.4 mph 24.2 mph N/A   Overcast
6:15 PM 24.8 °F 11.1 °F 19.4 °F 80% 30.39 in 7.0 mi NW 18.4 mph 24.2 mph N/A   Overcast
6:35 PM 23.0 °F 9.2 °F 19.4 °F 86% 30.39 in 10.0 mi NW 17.3 mph 24.2 mph N/A   Overcast
6:54 PM 23.0 °F 9.6 °F 17.6 °F 80% 30.40 in 10.0 mi NNW 16.1 mph - N/A   Scattered Clouds
7:14 PM 21.2 °F 8.3 °F 17.6 °F 86% 30.40 in 10.0 mi NNW 13.8 mph - N/A   Clear
7:34 PM 21.2 °F 5.6 °F 17.6 °F 86% 30.40 in 10.0 mi NNW 20.7 mph 25.3 mph N/A   Scattered Clouds
7:54 PM 21.2 °F 8.3 °F 15.8 °F 80% 30.40 in 10.0 mi NNW 13.8 mph - N/A   Scattered Clouds
8:14 PM 21.2 °F 6.8 °F 17.6 °F 86% 30.41 in 10.0 mi NNW 17.3 mph 21.9 mph N/A   Scattered Clouds
8:35 PM 21.2 °F 6.0 °F 15.8 °F 80% 30.41 in 7.0 mi NNW 19.6 mph 26.5 mph N/A   Scattered Clouds
8:54 PM 21.2 °F 5.6 °F 17.6 °F 86% 30.41 in 7.0 mi NNW 20.7 mph 24.2 mph N/A   Scattered Clouds
9:14 PM 19.4 °F 4.5 °F 15.8 °F 86% 30.42 in 10.0 mi NNW 17.3 mph - N/A   Scattered Clouds
9:34 PM 21.2 °F 6.4 °F 17.6 °F 86% 30.42 in 10.0 mi NW 18.4 mph 24.2 mph N/A   Scattered Clouds
9:54 PM 21.2 °F 6.8 °F 17.6 °F 86% 30.42 in 10.0 mi NW 17.3 mph - N/A   Overcast
10:14 PM 21.2 °F 6.0 °F 15.8 °F 80% 30.42 in 10.0 mi NW 19.6 mph - N/A   Mostly Cloudy
10:34 PM 19.4 °F 4.5 °F 15.8 °F 86% 30.42 in 10.0 mi NW 17.3 mph - N/A   Mostly Cloudy
10:54 PM 19.4 °F 3.2 °F 15.8 °F 86% 30.43 in 10.0 mi NW 20.7 mph 25.3 mph N/A   Overcast
11:14 PM 19.4 °F 3.6 °F 15.8 °F 86% 30.43 in 1.0 mi NNW 19.6 mph 25.3 mph N/A Snow Light Snow
11:34 PM 19.4 °F 2.8 °F 17.6 °F 93% 30.43 in 3.0 mi NW 21.9 mph - N/A   Overcast
11:54 PM 19.4 °F 3.2 °F 17.6 °F 93% 30.44 in 4.0 mi NW 20.7 mph - N/A Snow Light Snow